Regional Weather Roundup
Issued by NWS

Home | Current Version | Previous Version | Text Only | Print | Product List | Glossary On
Versions: 1 2 3 4 5 6 7 8 9 10 11 12 13 14 15 16 17 18 19 20 21 22 23 24 25 26 27 28 29 30 31 32 33 34 35 36 37 38 39 40 41 42 43 44 45 46 47 48 49 50
000
ASUS43 KBIS 281202
RWRND

NORTH DAKOTA REGIONAL WEATHER ROUNDUP
NATIONAL WEATHER SERVICE BISMARCK ND
700 AM CDT WED SEP 28 2016

NOTE: "FAIR" INDICATES FEW OR NO CLOUDS BELOW 12,000 FEET WITH NO
SIGNIFICANT WEATHER AND/OR OBSTRUCTIONS TO VISIBILITY.


NDZ001>003-009>011-017-281300-
NORTHWEST NORTH DAKOTA

CITY           SKY/WX    TMP DP  RH WIND       PRES   REMARKS
WILLISTON      CLEAR     47  44  90 CALM      30.18R
6HR MIN TEMP:  47; 6HR MAX TEMP:  56;

MINOT          CLEAR     40  37  89 SE6       30.18R
MINOT AFB      CLEAR     37  36  93 SE5       30.18R
$$

NDZ018>021-031>035-040>046-281300-
SOUTHWEST NORTH DAKOTA

CITY           SKY/WX    TMP DP  RH WIND       PRES   REMARKS
BISMARCK       CLOUDY    37  35  92 NE6       30.20R
6HR MIN TEMP:  37; 6HR MAX TEMP:  46;

DICKINSON      CLEAR     46  41  82 CALM      30.14R
GARRISON         N/A     42  40  92 E7        30.18R
6HR MIN TEMP:  42; 6HR MAX TEMP:  46;

HETTINGER ARPT CLEAR     42  40  92 CALM      30.17R
$$

NDZ004>008-012>016-024-026-027-054-281300-
NORTHEAST NORTH DAKOTA

CITY           SKY/WX    TMP DP  RH WIND       PRES   REMARKS
GRAND FORKS    CLOUDY    37  36  96 NW5       30.20R
GRND FRKS AFB  CLOUDY    37  37  97 N3        30.21R
DEVILS LAKE    CLOUDY    45  43  93 NE6       30.22R
$$

NDZ022-023-025-028>030-036>039-047>053-281300-
SOUTHEAST NORTH DAKOTA

CITY           SKY/WX    TMP DP  RH WIND       PRES   REMARKS
FARGO          CLOUDY    44  40  85 N5        30.19R
6HR MIN TEMP:  39; 6HR MAX TEMP:  45;

JAMESTOWN      CLOUDY    44  43  96 NW3       30.20R
$$





USA.gov is the U.S. government's official web portal to all federal, state and local government web resources and services.